Roseburg, OR

8:16 AM PDT on April 26, 2018 (GMT -0700)
Roseburg Regional

Weather History for KRBG - March, 2014

Change the Weather History Date:

Monday, March 3, 2014

  Actual Average Record
Temperature  
Mean Temperature 55 °F 47 °F  
Max Temperature 63 °F 56 °F 70 °F (1937)
Min Temperature 46 °F 38 °F 26 °F (1954)
Degree Days  
Heating Degree Days 10 18  
Month to date heating degree days 29 54  
Since 1 July heating degree days 2956 2923  
Cooling Degree Days 0 0  
Month to date cooling degree days 0 0  
Year to date cooling degree days 0 0  
Growing Degree Days 5 (Base 50)    
Moisture  
Dew Point 49 °F    
Average Humidity 77    
Maximum Humidity 93    
Minimum Humidity 60    
Precipitation  
Precipitation 0.35 in 0.10 in 2.62 in (1997)
Month to date precipitation 0.45 0.31  
Year to date precipitation 7.90 9.35  
Sea Level Pressure  
Sea Level Pressure 29.91 in    
Wind  
Wind Speed 2 mph (SSE)    
Max Wind Speed 10 mph    
Max Gust Speed 14 mph    
Visibility 8 miles    
Events Rain    
T = Trace of Precipitation, MM = Missing Value Source: NWS Daily Summary

Daily Weather History Graph

Daily Weather History Graph

Search for Another Location

Airport or City:

Astronomy

Mar. 03, 2014 Rise Set
Actual Time 6:46 AM PST 6:05 PM PST
Civil Twilight 6:17 AM PST 6:33 PM PST
Nautical Twilight 5:44 AM PST 7:06 PM PST
Astronomical Twilight 5:11 AM PST 7:39 PM PST
Moon 7:52 AM PST (3/3) 9:20 PM PST (3/3)
Length of Visible Light 12h 16m
Length of Day
11h 19m
Waxing Crescent, 8% of the Moon is Illuminated
Mar 3
Waxing Crescent
Mar 8
First Quarter
Mar 16
Full
Mar 23
Last Quarter
Mar 30
New

Hourly Weather History & Observations

Time (PST) Temp. Dew Point Humidity Pressure Visibility Wind Dir Wind Speed Gust Speed Precip Events Conditions
12:53 AM 51.1 °F 48.0 °F 89% 29.92 in 3.0 mi Calm Calm - 0.03 in Rain Rain
1:53 AM 50.0 °F 48.0 °F 93% 29.89 in 6.0 mi Calm Calm - 0.03 in Rain Light Rain
2:53 AM 50.0 °F 46.9 °F 89% 29.89 in 7.0 mi SSE 5.8 mph - 0.04 in Rain Light Rain
3:53 AM 50.0 °F 48.0 °F 93% 29.86 in 7.0 mi Variable 3.5 mph - 0.03 in Rain Light Rain
4:53 AM 50.0 °F 46.9 °F 89% 29.84 in 9.0 mi Calm Calm - 0.01 in Rain Light Rain
5:53 AM 51.1 °F 46.9 °F 86% 29.84 in 10.0 mi South 3.5 mph - 0.01 in Rain Light Rain
6:53 AM 51.1 °F 46.9 °F 86% 29.84 in 7.0 mi SSE 4.6 mph - 0.03 in Rain Light Rain
7:36 AM 51.1 °F 48.0 °F 89% 29.86 in 2.5 mi Calm Calm - 0.04 in Rain Light Rain
7:43 AM 51.1 °F 48.0 °F 89% 29.87 in 6.0 mi Calm Calm - 0.04 in Rain Light Rain
7:53 AM 51.1 °F 48.0 °F 89% 29.88 in 2.5 mi Variable 3.5 mph - 0.04 in Rain Light Rain
8:02 AM 51.1 °F 48.0 °F 89% 29.88 in 4.0 mi Calm Calm - 0.00 in Rain Light Rain
8:11 AM 51.1 °F 48.0 °F 89% 29.88 in 1.8 mi Calm Calm - 0.02 in Rain Light Rain
8:34 AM 51.1 °F 48.0 °F 89% 29.89 in 3.0 mi ENE 3.5 mph - 0.05 in Rain Light Rain
8:43 AM 51.1 °F 48.0 °F 89% 29.89 in 4.0 mi Calm Calm - 0.05 in Rain Light Rain
8:53 AM 52.0 °F 46.9 °F 83% 29.90 in 10.0 mi Calm Calm - 0.05 in   Overcast
9:53 AM 54.0 °F 48.9 °F 83% 29.89 in 10.0 mi East 3.5 mph - 0.00 in   Overcast
10:53 AM 54.0 °F 50.0 °F 86% 29.90 in 10.0 mi Calm Calm - 0.03 in   Overcast
11:53 AM 57.9 °F 51.1 °F 78% 29.90 in 10.0 mi Variable 3.5 mph - N/A   Mostly Cloudy
12:53 PM 59.0 °F 51.1 °F 75% 29.90 in 1.8 mi Variable 3.5 mph - 0.04 in Rain Rain
1:04 PM 59.0 °F 53.1 °F 81% 29.89 in 3.0 mi SSE 4.6 mph - 0.01 in Rain Light Rain
1:11 PM 59.0 °F 53.1 °F 81% 29.89 in 10.0 mi SSE 6.9 mph - 0.01 in   Overcast
1:53 PM 61.0 °F 53.1 °F 75% 29.89 in 10.0 mi SSE 8.1 mph - 0.01 in   Scattered Clouds
2:36 PM 61.0 °F 53.1 °F 75% 29.89 in 10.0 mi Variable 6.9 mph - N/A   Overcast
2:53 PM 61.0 °F 52.0 °F 72% 29.90 in 10.0 mi Calm Calm - N/A   Mostly Cloudy
3:06 PM 62.1 °F 52.0 °F 70% 29.90 in 10.0 mi Calm Calm - N/A   Mostly Cloudy
3:53 PM 62.1 °F 48.0 °F 60% 29.91 in 10.0 mi Variable 4.6 mph - N/A   Partly Cloudy
4:53 PM 61.0 °F 48.0 °F 62% 29.93 in 10.0 mi West 5.8 mph - N/A   Mostly Cloudy
5:53 PM 59.0 °F 46.9 °F 64% 29.95 in 10.0 mi Calm Calm - N/A   Clear
6:53 PM 55.9 °F 48.0 °F 75% 29.97 in 10.0 mi Calm Calm - N/A   Scattered Clouds
7:53 PM 54.0 °F 48.0 °F 80% 29.98 in 10.0 mi NW 4.6 mph - N/A   Scattered Clouds
8:53 PM 52.0 °F 46.9 °F 83% 29.99 in 10.0 mi Calm Calm - N/A   Partly Cloudy
9:53 PM 51.1 °F 46.9 °F 86% 30.01 in 10.0 mi Calm Calm - N/A   Clear
10:53 PM 48.9 °F 45.0 °F 86% 30.01 in 10.0 mi Calm Calm - N/A   Clear
11:53 PM 46.9 °F 43.0 °F 86% 30.02 in 7.0 mi Calm Calm - N/A   Clear